Location: Goll?ig?dem
(16.6773°N, 80.7332°E)
Time: 01:18:47
(UTC+00:00)

Okean O Rocket - Pass Details

Date: 21 April 2021
Orbit: 623 x 644 km, 98.2° (Epoch: 08 May)

Event Time Altitude Azimuth Distance (km) Brightness Sun altitude
Rises 13:35:21 0° 198° (SSW) 2,923 5.1 -10.4°
Reaches altitude 10° 13:38:06 10° 217° (SW) 2,021 4.5 -11.1°
Maximum altitude 13:41:11 19° 261° (W) 1,532 4.5 -11.8°
Drops below altitude 10° 13:44:17 10° 306° (NW) 2,031 5.4 -12.5°
Sets 13:47:05 0° 324° (NW) 2,943 5.9 -13.1°
